Tracking 19245 objects as of 18-Aug-2018
HD Live streaming from Space Station
objects crossing your sky now

COSMOS 962

Track COSMOS 962 now!
10-day predictions
COSMOS 962 is classified as:


NORAD ID: 10459
Int'l Code: 1977-107A
Perigee: 968.8 km
Apogee: 1,011.1 km
Inclination: 82.9 °
Period: 104.8 minutes
Semi major axis: 7360 km
RCS: 1.6429 m2 (large)
Launch date: October 28, 1977
Source: Commonwealth of Independent States (former USSR) (CIS)
Launch site: PLESETSK MISSILE AND SPACE COMPLEX (PKMTR)
aabbcc
Your satellite tracking list
Your tracking list is empty




NASA's NSSDC Master Catalog

Two Line Element Set (TLE):
1 10459U 77107A   18229.76696602 +.00000004 +00000-0 -12029-4 0  9998
2 10459 082.9489 095.2793 0028738 167.0546 238.1010 13.74675284046386
Source of the keplerian elements: AFSPC